| time (UTC) | temp F | wind direction | speed MPH | gust MPH | rain 1hr in | rain 24hr in | rain mn in | humidity % | barometer mb |
| 20260904204804 | 91 | 73 | 7.0 | 13.0 | 0.00 | 0.00 | 0.00 | 19 | 997.1 |
| 20260904204303 | 91 | 101 | 8.0 | 12.0 | 0.00 | 0.00 | 0.00 | 20 | 997.1 |
| 20260904203804 | 91 | 119 | 7.0 | 13.0 | 0.00 | 0.00 | 0.00 | 20 | 997.1 |
| 20260904202306 | 92 | 127 | 7.0 | 14.0 | 0.00 | 0.00 | 0.00 | 22 | 997.6 |
| 20260904201804 | 91 | 100 | 8.0 | 16.0 | 0.00 | 0.00 | 0.00 | 22 | 997.6 |
| 20260904200804 | 91 | 78 | 9.0 | 14.0 | 0.00 | 0.00 | 0.00 | 20 | 997.8 |
| 20260904200304 | 91 | 118 | 5.0 | 9.0 | 0.00 | 0.00 | 0.00 | 21 | 997.8 |
| 20260904195804 | 91 | 107 | 10.0 | 16.0 | 0.00 | 0.00 | 0.00 | 21 | 998.1 |
| 20260904194303 | 91 | 97 | 7.0 | 14.0 | 0.00 | 0.00 | 0.00 | 21 | 998.1 |
| 20260904193803 | 91 | 145 | 8.0 | 14.0 | 0.00 | 0.00 | 0.00 | 19 | 998.1 |
| 20260904192803 | 91 | 105 | 6.0 | 13.0 | 0.00 | 0.00 | 0.00 | 21 | 998.2 |
| 20260904192306 | 92 | 114 | 9.0 | 12.0 | 0.00 | 0.00 | 0.00 | 19 | 998.4 |
| 20260904191803 | 91 | 94 | 6.0 | 14.0 | 0.00 | 0.00 | 0.00 | 18 | 998.3 |
| 20260904191304 | 91 | 102 | 9.0 | 15.0 | 0.00 | 0.00 | 0.00 | 18 | 998.3 |
| 20260904190304 | 91 | 65 | 6.0 | 14.0 | 0.00 | 0.00 | 0.00 | 20 | 998.5 |
| 20260904185306 | 91 | 172 | 10.0 | 18.0 | 0.00 | 0.00 | 0.00 | 18 | 998.7 |
| 20260904184803 | 91 | 167 | 8.0 | 13.0 | 0.00 | 0.00 | 0.00 | 20 | 998.6 |
| 20260904183804 | 90 | 207 | 6.0 | 12.0 | 0.00 | 0.00 | 0.00 | 19 | 998.6 |
| 20260904183304 | 88 | 153 | 6.0 | 15.0 | 0.00 | 0.00 | 0.00 | 20 | 998.7 |
| 20260904182306 | 88 | 94 | 6.0 | 12.0 | 0.00 | 0.00 | 0.00 | 22 | 998.9 |
| 20260904181304 | 89 | 153 | 8.0 | 15.0 | 0.00 | 0.00 | 0.00 | 21 | 999.0 |
| 20260904180804 | 90 | 167 | 7.0 | 12.0 | 0.00 | 0.00 | 0.00 | 21 | 999.0 |
| 20260904180304 | 89 | 114 | 7.0 | 13.0 | 0.00 | 0.00 | 0.00 | 23 | 999.1 |
| 20260904175804 | 89 | 151 | 6.0 | 9.0 | 0.00 | 0.00 | 0.00 | 22 | 999.1 |
| 20260904175305 | 89 | 123 | 6.0 | 12.0 | 0.00 | 0.00 | 0.00 | 22 | 999.1 |
| 20260904173304 | 88 | 177 | 6.0 | 10.0 | 0.00 | 0.00 | 0.00 | 23 | 999.3 |
| 20260904171303 | 86 | 151 | 4.0 | 12.0 | 0.00 | 0.00 | 0.00 | 26 | 999.4 |
| 20260904165305 | 84 | 162 | 6.0 | 10.0 | 0.00 | 0.00 | 0.00 | 26 | 999.6 |
| 20260904164803 | 84 | 166 | 6.0 | 10.0 | 0.00 | 0.00 | 0.00 | 28 | 999.6 |
| 20260904163804 | 82 | 156 | 5.0 | 8.0 | 0.00 | 0.00 | 0.00 | 27 | 999.6 |
| 20260904163305 | 82 | 174 | 6.0 | 9.0 | 0.00 | 0.00 | 0.00 | 28 | 999.6 |
| 20260904162306 | 81 | 139 | 5.0 | 9.0 | 0.00 | 0.00 | 0.00 | 29 | 999.8 |
| 20260904161804 | 80 | 161 | 6.0 | 10.0 | 0.00 | 0.00 | 0.00 | 28 | 999.8 |
| 20260904160804 | 79 | 172 | 6.0 | 12.0 | 0.00 | 0.00 | 0.00 | 29 | 999.9 |
| 20260904160304 | 79 | 177 | 6.0 | 10.0 | 0.00 | 0.00 | 0.00 | 29 | 999.9 |
| 20260904154804 | 77 | 154 | 5.0 | 9.0 | 0.00 | 0.00 | 0.00 | 31 | 999.8 |
| 20260904154304 | 76 | 176 | 6.0 | 12.0 | 0.00 | 0.00 | 0.00 | 32 | 999.8 |
| 20260904153804 | 76 | 152 | 6.0 | 10.0 | 0.00 | 0.00 | 0.00 | 34 | 999.7 |
| 20260904153304 | 75 | 161 | 7.0 | 14.0 | 0.00 | 0.00 | 0.00 | 33 | 999.7 |
| 20260904152804 | 75 | 151 | 5.0 | 12.0 | 0.00 | 0.00 | 0.00 | 33 | 999.7 |
| 20260904152306 | 75 | 161 | 7.0 | 13.0 | 0.00 | 0.00 | 0.00 | 36 | 999.7 |
| 20260904151804 | 74 | 132 | 6.0 | 9.0 | 0.00 | 0.00 | 0.00 | 35 | 999.7 |
| 20260904151303 | 74 | 147 | 4.0 | 7.0 | 0.00 | 0.00 | 0.00 | 38 | 999.8 |
| 20260904150304 | 73 | 162 | 3.0 | 6.0 | 0.00 | 0.00 | 0.00 | 38 | 999.8 |
| 20260904145804 | 72 | 179 | 6.0 | 8.0 | 0.00 | 0.00 | 0.00 | 37 | 999.8 |
| 20260904144804 | 71 | 165 | 4.0 | 7.0 | 0.00 | 0.00 | 0.00 | 38 | 999.8 |
| 20260904142306 | 69 | 169 | 3.0 | 5.0 | 0.00 | 0.00 | 0.00 | 47 | 999.6 |
| 20260904141804 | 68 | 207 | 3.0 | 6.0 | 0.00 | 0.00 | 0.00 | 47 | 999.6 |
| 20260904141305 | 67 | 168 | 3.0 | 5.0 | 0.00 | 0.00 | 0.00 | 50 | 999.7 |
| 20260904140804 | 67 | 150 | 1.0 | 3.0 | 0.00 | 0.00 | 0.00 | 51 | 999.7 |
| 20260904140305 | 66 | 168 | 2.0 | 5.0 | 0.00 | 0.00 | 0.00 | 52 | 999.5 |
| 20260904135306 | 65 | 183 | 2.0 | 3.0 | 0.00 | 0.00 | 0.00 | 52 | 999.3 |
| 20260904133804 | 64 | 165 | 3.0 | 7.0 | 0.00 | 0.00 | 0.00 | 53 | 999.3 |
| 20260904133305 | 63 | 192 | 3.0 | 5.0 | 0.00 | 0.00 | 0.00 | 54 | 999.2 |
| 20260904132306 | 62 | 172 | 2.0 | 6.0 | 0.00 | 0.00 | 0.00 | 60 | 999.2 |
| 20260904131805 | 60 | 159 | 0.0 | 2.0 | 0.00 | 0.00 | 0.00 | 63 | 999.2 |
| 20260904130805 | 60 | 193 | 0.0 | 2.0 | 0.00 | 0.00 | 0.00 | 64 | 999.2 |
| 20260904130304 | 59 | 193 | 1.0 | 2.0 | 0.00 | 0.00 | 0.00 | 65 | 999.1 |
| 20260904125306 | 59 | 193 | 0.0 | 0.0 | 0.00 | 0.00 | 0.00 | 65 | 998.8 |
| 20260904123805 | 59 | 193 | 1.0 | 3.0 | 0.00 | 0.00 | 0.00 | 65 | 998.7 |
| 20260904123304 | 59 | 193 | 2.0 | 2.0 | 0.00 | 0.00 | 0.00 | 66 | 998.6 |
| 20260904121805 | 59 | 200 | 1.0 | 2.0 | 0.00 | 0.00 | 0.00 | 65 | 998.6 |
| 20260904120305 | 60 | 200 | 1.0 | 2.0 | 0.00 | 0.00 | 0.00 | 62 | 998.4 |
| 20260904113805 | 59 | 199 | 1.0 | 3.0 | 0.00 | 0.00 | 0.00 | 65 | 998.3 |
| 20260904112805 | 59 | 225 | 2.0 | 3.0 | 0.00 | 0.00 | 0.00 | 66 | 998.2 |
| 20260904111805 | 59 | 242 | 2.0 | 3.0 | 0.00 | 0.00 | 0.00 | 65 | 998.2 |
| 20260904111305 | 59 | 242 | 0.0 | 2.0 | 0.00 | 0.00 | 0.00 | 64 | 998.0 |
| 20260904110805 | 59 | 242 | 1.0 | 2.0 | 0.00 | 0.00 | 0.00 | 64 | 997.9 |
| 20260904105805 | 60 | 242 | 1.0 | 2.0 | 0.00 | 0.00 | 0.00 | 62 | 998.0 |
| 20260904104305 | 61 | 242 | 0.0 | 0.0 | 0.00 | 0.00 | 0.00 | 59 | 997.9 |
| 20260904103305 | 61 | 242 | 1.0 | 2.0 | 0.00 | 0.00 | 0.00 | 58 | 997.7 |
| 20260904102306 | 62 | 242 | 1.0 | 2.0 | 0.00 | 0.00 | 0.00 | 56 | 997.6 |
| 20260904101804 | 62 | 242 | 1.0 | 2.0 | 0.00 | 0.00 | 0.00 | 56 | 997.6 |
| 20260904101304 | 63 | 242 | 0.0 | 1.0 | 0.00 | 0.00 | 0.00 | 55 | 997.4 |
| 20260904100805 | 62 | 242 | 1.0 | 2.0 | 0.00 | 0.00 | 0.00 | 55 | 997.4 |
| 20260904095805 | 61 | 252 | 0.0 | 2.0 | 0.00 | 0.00 | 0.00 | 57 | 997.4 |
| 20260904093305 | 62 | 252 | 0.0 | 2.0 | 0.00 | 0.00 | 0.00 | 55 | 997.3 |
| 20260904092805 | 62 | 252 | 1.0 | 2.0 | 0.00 | 0.00 | 0.00 | 55 | 997.3 |
| 20260904090305 | 64 | 285 | 1.0 | 3.0 | 0.00 | 0.00 | 0.00 | 52 | 997.1 |
| 20260904083804 | 63 | 315 | 2.0 | 3.0 | 0.00 | 0.00 | 0.00 | 54 | 997.0 |
| 20260904083305 | 63 | 304 | 2.0 | 5.0 | 0.00 | 0.00 | 0.00 | 56 | 997.0 |
| 20260904081304 | 63 | 215 | 0.0 | 0.0 | 0.00 | 0.00 | 0.00 | 56 | 996.9 |
| 20260904075804 | 63 | 215 | 1.0 | 2.0 | 0.00 | 0.00 | 0.00 | 54 | 996.9 |
| 20260904072804 | 65 | 200 | 2.0 | 3.0 | 0.00 | 0.00 | 0.00 | 51 | 997.1 |
| 20260904071305 | 66 | 0 | 0.0 | 2.0 | 0.00 | 0.00 | 0.00 | 50 | 997.0 |
| 20260904070805 | 66 | 0 | 1.0 | 3.0 | 0.00 | 0.00 | 0.00 | 50 | 997.1 |
| 20260904065805 | 66 | 127 | 3.0 | 5.0 | 0.00 | 0.00 | 0.00 | 50 | 997.1 |
| 20260904064804 | 67 | 163 | 2.0 | 3.0 | 0.00 | 0.00 | 0.00 | 48 | 997.3 |
| 20260904064304 | 67 | 181 | 0.0 | 0.0 | 0.00 | 0.00 | 0.00 | 48 | 997.1 |
| 20260904063805 | 68 | 144 | 2.0 | 3.0 | 0.00 | 0.00 | 0.00 | 47 | 997.3 |
| 20260904063305 | 67 | 180 | 0.0 | 1.0 | 0.00 | 0.00 | 0.00 | 48 | 997.2 |
| 20260904062805 | 68 | 180 | 1.0 | 2.0 | 0.00 | 0.00 | 0.00 | 47 | 997.2 |
| 20260904061304 | 69 | 177 | 1.0 | 5.0 | 0.00 | 0.00 | 0.00 | 45 | 997.2 |
| 20260904060816 | 69 | 245 | 2.0 | 5.0 | 0.00 | 0.00 | 0.00 | 45 | 997.2 |
| 20260904054804 | 70 | 197 | 2.0 | 5.0 | 0.00 | 0.00 | 0.00 | 42 | 997.4 |
| 20260904053804 | 70 | 172 | 2.0 | 3.0 | 0.00 | 0.00 | 0.00 | 43 | 997.3 |
| 20260904053305 | 71 | 175 | 2.0 | 5.0 | 0.00 | 0.00 | 0.00 | 43 | 997.3 |
| 20260904052804 | 71 | 182 | 4.0 | 6.0 | 0.00 | 0.00 | 0.00 | 43 | 997.3 |
| 20260904052307 | 71 | 156 | 2.0 | 8.0 | 0.00 | 0.00 | 0.00 | 42 | 997.3 |
| 20260904051805 | 71 | 144 | 4.0 | 8.0 | 0.00 | 0.00 | 0.00 | 41 | 997.2 |
| 20260904051305 | 71 | 129 | 7.0 | 12.0 | 0.00 | 0.00 | 0.00 | 42 | 997.0 |
| 20260904050805 | 71 | 134 | 6.0 | 9.0 | 0.00 | 0.02 | 0.00 | 41 | 996.9 |
| 20260904045804 | 73 | 143 | 3.0 | 5.0 | 0.00 | 0.12 | 0.00 | 39 | 996.8 |
| 20260904045307 | 73 | 191 | 2.0 | 5.0 | 0.00 | 0.13 | 0.00 | 38 | 996.7 |
| 20260904044805 | 72 | 200 | 3.0 | 6.0 | 0.00 | 0.13 | 0.00 | 39 | 996.5 |
| 20260904043804 | 73 | 229 | 3.0 | 7.0 | 0.00 | 0.13 | 0.00 | 38 | 996.4 |
| 20260904042805 | 73 | 274 | 4.0 | 8.0 | 0.00 | 0.13 | 0.00 | 38 | 996.4 |
| 20260904042306 | 73 | 245 | 4.0 | 7.0 | 0.00 | 0.13 | 0.00 | 38 | 996.5 |
| 20260904040805 | 73 | 241 | 4.0 | 7.0 | 0.00 | 0.13 | 0.00 | 39 | 996.6 |
| 20260904040304 | 73 | 202 | 3.0 | 7.0 | 0.00 | 0.13 | 0.00 | 39 | 996.6 |
| 20260904035804 | 73 | 254 | 4.0 | 7.0 | 0.00 | 0.13 | 0.00 | 38 | 996.6 |
| 20260904035306 | 72 | 244 | 3.0 | 6.0 | 0.00 | 0.13 | 0.00 | 37 | 996.7 |
| 20260904034805 | 72 | 259 | 2.0 | 3.0 | 0.00 | 0.13 | 0.00 | 36 | 996.5 |
| 20260904032805 | 74 | 261 | 2.0 | 5.0 | 0.00 | 0.13 | 0.00 | 34 | 996.5 |
| 20260904032306 | 74 | 268 | 1.0 | 3.0 | 0.00 | 0.13 | 0.00 | 33 | 996.5 |
| 20260904031304 | 76 | 252 | 3.0 | 6.0 | 0.00 | 0.13 | 0.00 | 30 | 996.4 |
| 20260904030805 | 76 | 284 | 3.0 | 5.0 | 0.00 | 0.13 | 0.00 | 30 | 996.4 |
| 20260904030304 | 78 | 36 | 3.0 | 8.0 | 0.00 | 0.13 | 0.00 | 29 | 996.2 |
| 20260904025306 | 79 | 64 | 6.0 | 10.0 | 0.00 | 0.13 | 0.00 | 27 | 996.1 |
| 20260904024804 | 79 | 61 | 6.0 | 10.0 | 0.00 | 0.13 | 0.00 | 26 | 996.2 |
| 20260904022306 | 80 | 55 | 5.0 | 8.0 | 0.00 | 0.13 | 0.00 | 25 | 995.9 |
| 20260904021804 | 81 | 75 | 3.0 | 6.0 | 0.00 | 0.13 | 0.00 | 25 | 995.9 |
| 20260904021305 | 81 | 67 | 3.0 | 8.0 | 0.00 | 0.13 | 0.00 | 25 | 995.8 |
| 20260904013804 | 82 | 22 | 3.0 | 6.0 | 0.00 | 0.13 | 0.00 | 24 | 995.8 |
| 20260904013305 | 82 | 20 | 3.0 | 7.0 | 0.00 | 0.13 | 0.00 | 25 | 995.8 |
| 20260904012805 | 83 | 34 | 3.0 | 7.0 | 0.00 | 0.13 | 0.00 | 23 | 995.9 |
| 20260904011804 | 84 | 56 | 4.0 | 8.0 | 0.00 | 0.13 | 0.00 | 23 | 995.9 |
| 20260904011305 | 84 | 43 | 5.0 | 7.0 | 0.00 | 0.13 | 0.00 | 23 | 996.0 |
| 20260904005805 | 86 | 40 | 5.0 | 12.0 | 0.00 | 0.13 | 0.00 | 22 | 995.9 |
| 20260904004305 | 86 | 49 | 5.0 | 10.0 | 0.00 | 0.13 | 0.00 | 22 | 996.1 |
| 20260904003804 | 87 | 65 | 4.0 | 10.0 | 0.00 | 0.13 | 0.00 | 22 | 996.0 |
| 20260904003304 | 88 | 56 | 5.0 | 10.0 | 0.00 | 0.13 | 0.00 | 21 | 996.0 |
| 20260904002306 | 88 | 70 | 9.0 | 15.0 | 0.00 | 0.13 | 0.00 | 21 | 996.0 |
| 20260904000804 | 88 | 79 | 6.0 | 13.0 | 0.00 | 0.13 | 0.00 | 21 | 995.9 |
| 20260904000304 | 88 | 80 | 8.0 | 14.0 | 0.00 | 0.13 | 0.00 | 20 | 995.9 |
| 20260903234305 | 89 | 89 | 7.0 | 15.0 | 0.00 | 0.13 | 0.00 | 21 | 996.0 |
| 20260903233805 | 89 | 76 | 7.0 | 13.0 | 0.00 | 0.13 | 0.00 | 21 | 995.9 |
| 20260903233305 | 89 | 103 | 9.0 | 15.0 | 0.00 | 0.13 | 0.00 | 20 | 995.9 |
| 20260903232805 | 89 | 99 | 9.0 | 12.0 | 0.00 | 0.13 | 0.00 | 20 | 996.0 |
| 20260903231805 | 90 | 100 | 7.0 | 13.0 | 0.00 | 0.13 | 0.00 | 21 | 995.9 |
| 20260903231305 | 90 | 106 | 9.0 | 15.0 | 0.00 | 0.13 | 0.00 | 19 | 995.9 |
| 20260903230804 | 91 | 74 | 5.0 | 13.0 | 0.00 | 0.13 | 0.00 | 20 | 995.9 |
| 20260903225306 | 92 | 71 | 9.0 | 15.0 | 0.00 | 0.13 | 0.00 | 18 | 995.9 |
| 20260903224805 | 92 | 118 | 6.0 | 12.0 | 0.00 | 0.13 | 0.00 | 19 | 995.9 |
| 20260903220804 | 90 | 92 | 3.0 | 6.0 | 0.00 | 0.13 | 0.00 | 19 | 996.2 |
| 20260903215804 | 90 | 26 | 3.0 | 12.0 | 0.00 | 0.13 | 0.00 | 19 | 996.3 |
| 20260903215306 | 90 | 61 | 5.0 | 13.0 | 0.00 | 0.13 | 0.00 | 19 | 996.4 |
| 20260903214304 | 90 | 347 | 4.0 | 7.0 | 0.00 | 0.13 | 0.00 | 18 | 996.5 |
| 20260903213305 | 90 | 70 | 6.0 | 12.0 | 0.00 | 0.13 | 0.00 | 19 | 996.6 |
| 20260903212804 | 90 | 39 | 7.0 | 13.0 | 0.00 | 0.13 | 0.00 | 21 | 996.6 |
| 20260903211804 | 89 | 60 | 5.0 | 12.0 | 0.00 | 0.13 | 0.00 | 20 | 996.7 |
| 20260903211305 | 89 | 54 | 9.0 | 15.0 | 0.00 | 0.13 | 0.00 | 20 | 997.0 |
| 20260903210305 | 88 | 56 | 5.0 | 13.0 | 0.00 | 0.13 | 0.00 | 21 | 997.1 |
| 20260903205805 | 88 | 46 | 5.0 | 8.0 | 0.00 | 0.13 | 0.00 | 21 | 997.2 |